CFG5XP EDDF-LEIB

Flight info

Callsign CFG5XP
Flight time 2h 6m
Altitude 35000
Route ANEKI2L ANEKI Y163 HERBI Y164 MOPAN DCT LUTIX DCT BENOT DCT NEMOS DCT GEVEA DCT INCUS DCT BALSI DCT RETNO DCT TUPOX DCT MTG DCT DIVKO DCT VATIR DCT PIVUS DCT SULID DCT DIMIB DCT POS
Aircraft A320/M-SDE3FGHIJ1LORVWXYZ/SB1

Departure

Time 2026-05-07 12:17
Airport Frankfurt Main Airport (EDDF)

Arrival

Time 2026-05-07 14:24
Airport Ibiza Airport (LEIB)
Time Latitude Longitude Altitude Speed Heading
2026-05-07 11:36 50.04097 8.55758 350 ft 0 kts 160°
2026-05-07 12:07 50.04096 8.55758 351 ft 0 kts 160°
2026-05-07 12:07 50.04089 8.55762 351 ft 2 kts 160°
2026-05-07 12:07 50.04064 8.55776 350 ft 5 kts 160°
2026-05-07 12:08 50.04021 8.55783 350 ft 7 kts 208°
2026-05-07 12:08 50.03991 8.55699 350 ft 10 kts 249°
2026-05-07 12:08 50.03963 8.55581 351 ft 12 kts 251°
2026-05-07 12:08 50.03980 8.55466 350 ft 12 kts 333°
2026-05-07 12:09 50.04040 8.55431 350 ft 6 kts 339°
2026-05-07 12:09 50.04080 8.55406 350 ft 6 kts 327°
2026-05-07 12:09 50.04094 8.55337 350 ft 7 kts 264°
2026-05-07 12:09 50.04077 8.55253 350 ft 8 kts 251°
2026-05-07 12:10 50.04054 8.55155 351 ft 10 kts 250°
2026-05-07 12:10 50.04028 8.55045 350 ft 11 kts 250°
2026-05-07 12:10 50.03999 8.54925 350 ft 12 kts 249°
2026-05-07 12:10 50.03973 8.54818 350 ft 9 kts 250°
2026-05-07 12:11 50.03950 8.54721 350 ft 9 kts 249°
2026-05-07 12:11 50.03925 8.54617 351 ft 10 kts 249°
2026-05-07 12:11 50.03897 8.54502 350 ft 11 kts 250°
2026-05-07 12:11 50.03867 8.54387 351 ft 11 kts 238°
2026-05-07 12:12 50.03822 8.54285 351 ft 10 kts 237°
2026-05-07 12:12 50.03790 8.54174 351 ft 11 kts 251°
2026-05-07 12:12 50.03760 8.54051 351 ft 12 kts 250°
2026-05-07 12:12 50.03729 8.53920 350 ft 13 kts 250°
2026-05-07 12:13 50.03696 8.53782 351 ft 13 kts 249°
2026-05-07 12:13 50.03661 8.53638 351 ft 14 kts 248°
2026-05-07 12:13 50.03624 8.53491 351 ft 14 kts 253°
2026-05-07 12:13 50.03587 8.53339 351 ft 15 kts 248°
2026-05-07 12:14 50.03548 8.53181 351 ft 15 kts 250°
2026-05-07 12:14 50.03509 8.53021 351 ft 16 kts 248°
2026-05-07 12:14 50.03467 8.52859 351 ft 16 kts 248°
2026-05-07 12:14 50.03439 8.52750 351 ft 4 kts 248°
2026-05-07 12:15 50.03436 8.52741 351 ft 0 kts 248°
2026-05-07 12:15 50.03434 8.52734 351 ft 1 kts 248°
2026-05-07 12:15 50.03428 8.52708 351 ft 3 kts 249°
2026-05-07 12:15 50.03418 8.52665 351 ft 4 kts 252°
2026-05-07 12:16 50.03403 8.52614 351 ft 5 kts 225°
2026-05-07 12:16 50.03367 8.52602 351 ft 1 kts 178°
2026-05-07 12:16 50.03319 8.52604 351 ft 26 kts 180°
2026-05-07 12:16 50.02899 8.52607 351 ft 94 kts 180°
2026-05-07 12:17 50.02043 8.52620 351 ft 150 kts 179°
2026-05-07 12:17 50.00896 8.52640 706 ft 166 kts 181°
2026-05-07 12:17 49.99766 8.52660 1293 ft 165 kts 181°
2026-05-07 12:17 49.98618 8.52689 1838 ft 170 kts 180°
2026-05-07 12:18 49.97432 8.52787 2388 ft 171 kts 178°
2026-05-07 12:18 49.96238 8.52899 2854 ft 175 kts 178°
2026-05-07 12:18 49.95027 8.53004 3338 ft 177 kts 178°
2026-05-07 12:18 49.93793 8.53103 3758 ft 185 kts 178°
2026-05-07 12:19 49.92456 8.53202 4149 ft 197 kts 178°
2026-05-07 12:19 49.91046 8.53302 4482 ft 213 kts 179°
2026-05-07 12:19 49.89498 8.53407 4824 ft 230 kts 179°
2026-05-07 12:19 49.87826 8.53518 5117 ft 251 kts 179°
2026-05-07 12:20 49.86099 8.53635 5866 ft 251 kts 179°
2026-05-07 12:20 49.84364 8.53754 6692 ft 250 kts 179°
2026-05-07 12:20 49.82637 8.53869 7444 ft 252 kts 179°
2026-05-07 12:20 49.80906 8.53983 8173 ft 255 kts 179°
2026-05-07 12:21 49.79133 8.54098 8892 ft 258 kts 180°
2026-05-07 12:21 49.77347 8.54059 9599 ft 260 kts 186°
2026-05-07 12:21 49.75492 8.53834 10051 ft 275 kts 187°
2026-05-07 12:21 49.73549 8.53573 10419 ft 292 kts 187°
2026-05-07 12:22 49.71468 8.53290 10761 ft 310 kts 187°
2026-05-07 12:22 49.69252 8.52991 11108 ft 326 kts 187°
2026-05-07 12:22 49.66977 8.52689 11688 ft 333 kts 187°
2026-05-07 12:22 49.64653 8.52382 12381 ft 336 kts 186°
2026-05-07 12:23 49.62354 8.52078 13043 ft 339 kts 187°
2026-05-07 12:23 49.60004 8.51769 13683 ft 342 kts 186°
2026-05-07 12:23 49.57604 8.51453 14308 ft 345 kts 186°
2026-05-07 12:23 49.55230 8.51142 14911 ft 348 kts 187°
2026-05-07 12:24 49.52820 8.50825 15477 ft 352 kts 187°
2026-05-07 12:24 49.50369 8.50504 16044 ft 355 kts 187°
2026-05-07 12:24 49.47926 8.50182 16601 ft 358 kts 187°
2026-05-07 12:24 49.45428 8.49854 17149 ft 360 kts 186°
2026-05-07 12:25 49.42934 8.49527 17692 ft 363 kts 187°
2026-05-07 12:25 49.40432 8.49199 18211 ft 366 kts 187°
2026-05-07 12:25 49.37870 8.48864 18737 ft 368 kts 187°
2026-05-07 12:25 49.35335 8.48533 19255 ft 371 kts 187°
2026-05-07 12:26 49.32740 8.48195 19772 ft 373 kts 187°
2026-05-07 12:26 49.30161 8.47859 20275 ft 375 kts 187°
2026-05-07 12:26 49.27576 8.47524 20765 ft 377 kts 187°
2026-05-07 12:26 49.24960 8.47185 21250 ft 380 kts 187°
2026-05-07 12:27 49.22342 8.46843 21721 ft 382 kts 187°
2026-05-07 12:27 49.19668 8.46495 22189 ft 385 kts 187°
2026-05-07 12:27 49.17001 8.46149 22655 ft 387 kts 187°
2026-05-07 12:27 49.14320 8.45802 23108 ft 389 kts 187°
2026-05-07 12:28 49.11647 8.45455 23551 ft 391 kts 188°
2026-05-07 12:28 49.08938 8.45100 23981 ft 394 kts 188°
2026-05-07 12:28 49.06198 8.44573 24423 ft 395 kts 192°
2026-05-07 12:28 49.03499 8.43786 24850 ft 396 kts 195°
2026-05-07 12:29 49.00837 8.42856 25263 ft 398 kts 196°
2026-05-07 12:29 48.98123 8.41906 25657 ft 400 kts 195°
2026-05-07 12:29 48.95420 8.40962 26037 ft 403 kts 195°
2026-05-07 12:29 48.92690 8.40011 26417 ft 405 kts 195°
2026-05-07 12:30 48.89955 8.39060 26781 ft 407 kts 195°
2026-05-07 12:30 48.87168 8.38092 27129 ft 409 kts 195°
2026-05-07 12:30 48.84401 8.37133 27473 ft 411 kts 195°
2026-05-07 12:30 48.81639 8.36177 27821 ft 413 kts 195°
2026-05-07 12:31 48.78824 8.35204 28154 ft 415 kts 195°
2026-05-07 12:31 48.76001 8.34193 28477 ft 417 kts 195°
2026-05-07 12:31 48.73185 8.33161 28784 ft 419 kts 195°
2026-05-07 12:31 48.70363 8.32126 29071 ft 421 kts 195°
2026-05-07 12:32 48.67517 8.31083 29355 ft 423 kts 195°
2026-05-07 12:32 48.64656 8.30038 29633 ft 425 kts 195°
2026-05-07 12:32 48.61791 8.28994 29916 ft 427 kts 195°
2026-05-07 12:32 48.58897 8.27941 30193 ft 429 kts 195°
2026-05-07 12:33 48.53113 8.25840 30702 ft 432 kts 194°
2026-05-07 12:33 48.50174 8.24775 30959 ft 434 kts 194°
2026-05-07 12:33 48.47228 8.23706 31191 ft 436 kts 194°
2026-05-07 12:34 48.44310 8.22641 31380 ft 438 kts 194°
2026-05-07 12:34 48.41328 8.21551 31571 ft 439 kts 194°
2026-05-07 12:34 48.38384 8.20476 31748 ft 441 kts 195°
2026-05-07 12:34 48.35385 8.19382 31925 ft 442 kts 195°
2026-05-07 12:35 48.32427 8.18305 32086 ft 444 kts 194°
2026-05-07 12:35 48.29398 8.17186 32259 ft 445 kts 196°
2026-05-07 12:35 48.26442 8.15889 32456 ft 444 kts 199°
2026-05-07 12:35 48.23564 8.14359 32669 ft 442 kts 202°
2026-05-07 12:36 48.20761 8.12594 32878 ft 440 kts 206°
2026-05-07 12:36 48.17981 8.10580 33074 ft 439 kts 208°
2026-05-07 12:36 48.15286 8.08582 33246 ft 439 kts 208°
2026-05-07 12:36 48.12540 8.06552 33394 ft 439 kts 208°
2026-05-07 12:37 48.09810 8.04537 33535 ft 440 kts 208°
2026-05-07 12:37 48.07087 8.02530 33667 ft 441 kts 208°
2026-05-07 12:37 48.04328 8.00498 33799 ft 441 kts 208°
2026-05-07 12:37 48.01582 7.98480 33935 ft 441 kts 208°
2026-05-07 12:38 47.98842 7.96469 34071 ft 442 kts 208°
2026-05-07 12:38 47.96084 7.94445 34189 ft 442 kts 208°
2026-05-07 12:38 47.93322 7.92424 34317 ft 443 kts 208°
2026-05-07 12:38 47.90567 7.90409 34439 ft 443 kts 208°
2026-05-07 12:39 47.87804 7.88389 34580 ft 443 kts 209°
2026-05-07 12:39 47.85061 7.86386 34696 ft 443 kts 209°
2026-05-07 12:39 47.82304 7.84373 34805 ft 443 kts 209°
2026-05-07 12:39 47.79549 7.82365 34925 ft 443 kts 209°
2026-05-07 12:40 47.74019 7.78345 35017 ft 444 kts 208°
2026-05-07 12:40 47.68480 7.74329 35018 ft 444 kts 209°
2026-05-07 12:41 47.62958 7.70335 35022 ft 444 kts 209°
2026-05-07 12:41 47.57412 7.66331 35016 ft 444 kts 209°
2026-05-07 12:42 47.51866 7.62336 35016 ft 444 kts 209°
2026-05-07 12:42 47.46360 7.58380 35009 ft 444 kts 209°
2026-05-07 12:43 47.40808 7.54400 35019 ft 443 kts 209°
2026-05-07 12:43 47.35284 7.50448 35005 ft 443 kts 209°
2026-05-07 12:44 47.29755 7.46499 35025 ft 442 kts 209°
2026-05-07 12:44 47.24277 7.42574 35021 ft 442 kts 211°
2026-05-07 12:45 47.19044 7.37895 35033 ft 438 kts 219°
2026-05-07 12:45 47.14373 7.32247 35028 ft 435 kts 226°
2026-05-07 12:46 47.10318 7.25749 35021 ft 432 kts 233°
2026-05-07 12:46 47.06615 7.18897 35025 ft 431 kts 234°
2026-05-07 12:47 47.02889 7.12033 35020 ft 431 kts 233°
2026-05-07 12:47 46.99144 7.05183 35017 ft 431 kts 233°
2026-05-07 12:48 46.95414 6.98376 35021 ft 431 kts 234°
2026-05-07 12:48 46.91492 6.91789 35024 ft 433 kts 229°
2026-05-07 12:49 46.87056 6.85788 35024 ft 435 kts 223°
2026-05-07 12:49 46.82413 6.80255 35021 ft 434 kts 223°
2026-05-07 12:50 46.77731 6.74679 35018 ft 433 kts 223°
2026-05-07 12:50 46.73109 6.69189 35011 ft 433 kts 223°
2026-05-07 12:51 46.68432 6.63649 35014 ft 432 kts 223°
2026-05-07 12:51 46.63791 6.58163 35008 ft 432 kts 223°
2026-05-07 12:52 46.59152 6.52693 35000 ft 432 kts 223°
2026-05-07 12:52 46.54498 6.47218 34999 ft 431 kts 223°
2026-05-07 12:53 46.49827 6.41734 34998 ft 431 kts 223°
2026-05-07 12:53 46.45206 6.36320 34902 ft 430 kts 223°
2026-05-07 12:54 46.40570 6.30901 34964 ft 430 kts 222°
2026-05-07 12:54 46.35907 6.25463 34995 ft 430 kts 222°
2026-05-07 12:55 46.31216 6.20150 34998 ft 431 kts 218°
2026-05-07 12:55 46.26049 6.15777 35003 ft 436 kts 210°
2026-05-07 12:56 46.20385 6.12636 34997 ft 440 kts 200°
2026-05-07 12:56 46.14397 6.10823 35003 ft 443 kts 194°
2026-05-07 12:57 46.08297 6.09460 34996 ft 443 kts 193°
2026-05-07 12:57 46.02220 6.08111 34984 ft 442 kts 193°
2026-05-07 12:58 45.96195 6.06773 34981 ft 441 kts 193°
2026-05-07 12:58 45.90134 6.05428 34988 ft 442 kts 193°
2026-05-07 12:59 45.84079 6.04090 34985 ft 441 kts 193°
2026-05-07 12:59 45.77991 6.02747 34984 ft 441 kts 194°
2026-05-07 13:00 45.71963 6.01418 34985 ft 440 kts 194°
2026-05-07 13:00 45.65929 6.00089 34987 ft 439 kts 194°
2026-05-07 13:01 45.59921 5.98768 34977 ft 439 kts 194°
2026-05-07 13:01 45.53919 5.97450 34975 ft 438 kts 194°
2026-05-07 13:02 45.47933 5.96106 34978 ft 436 kts 196°
2026-05-07 13:02 45.42051 5.94313 34988 ft 434 kts 198°
2026-05-07 13:03 45.36140 5.92475 35004 ft 433 kts 198°
2026-05-07 13:03 45.30266 5.90647 35021 ft 432 kts 198°
2026-05-07 13:04 45.24414 5.88828 35025 ft 432 kts 198°
2026-05-07 13:04 45.18581 5.87018 35024 ft 431 kts 198°
2026-05-07 13:05 45.12714 5.85201 35031 ft 430 kts 198°
2026-05-07 13:05 45.06915 5.83407 35027 ft 431 kts 198°
2026-05-07 13:06 45.01042 5.81594 35014 ft 430 kts 198°
2026-05-07 13:06 44.95234 5.79806 35021 ft 430 kts 198°
2026-05-07 13:07 44.89389 5.78010 35020 ft 429 kts 198°
2026-05-07 13:07 44.83576 5.76226 35013 ft 428 kts 198°
2026-05-07 13:08 44.77776 5.74450 35002 ft 428 kts 198°
2026-05-07 13:08 44.71981 5.72680 34998 ft 428 kts 198°
2026-05-07 13:09 44.66185 5.70912 34998 ft 428 kts 198°
2026-05-07 13:09 44.60362 5.69140 34996 ft 427 kts 198°
2026-05-07 13:10 44.54565 5.67379 34990 ft 428 kts 198°
2026-05-07 13:10 44.48773 5.65622 34987 ft 428 kts 197°
2026-05-07 13:11 44.42985 5.63872 34986 ft 427 kts 197°
2026-05-07 13:11 44.37277 5.61787 34980 ft 423 kts 203°
2026-05-07 13:12 44.31784 5.58954 34977 ft 420 kts 206°
2026-05-07 13:12 44.26362 5.55993 34975 ft 420 kts 206°
2026-05-07 13:13 44.20930 5.53029 34979 ft 420 kts 206°
2026-05-07 13:13 44.15486 5.50059 34981 ft 420 kts 206°
2026-05-07 13:14 44.10041 5.47093 34978 ft 420 kts 206°
2026-05-07 13:14 44.04641 5.44154 34979 ft 419 kts 206°
2026-05-07 13:15 43.99200 5.41203 34967 ft 419 kts 206°
2026-05-07 13:15 43.93785 5.38273 34965 ft 419 kts 206°
2026-05-07 13:16 43.88362 5.35344 34968 ft 419 kts 206°
2026-05-07 13:16 43.82949 5.32425 34964 ft 419 kts 205°
2026-05-07 13:17 43.77551 5.29517 34967 ft 418 kts 205°
2026-05-07 13:17 43.72127 5.26600 34961 ft 418 kts 205°
2026-05-07 13:18 43.66730 5.23703 34961 ft 416 kts 205°
2026-05-07 13:18 43.61356 5.20822 34965 ft 415 kts 205°
2026-05-07 13:19 43.55968 5.17940 34972 ft 415 kts 205°
2026-05-07 13:19 43.50616 5.15081 34972 ft 414 kts 205°
2026-05-07 13:20 43.45242 5.12219 34974 ft 414 kts 205°
2026-05-07 13:20 43.39990 5.09068 34973 ft 412 kts 210°
2026-05-07 13:21 43.35041 5.05245 34972 ft 409 kts 216°
2026-05-07 13:21 43.30363 5.00899 34973 ft 407 kts 217°
2026-05-07 13:22 43.25709 4.96534 34967 ft 405 kts 217°
2026-05-07 13:22 43.21055 4.92167 34969 ft 405 kts 217°
2026-05-07 13:23 43.16431 4.87831 34965 ft 404 kts 217°
2026-05-07 13:23 43.11780 4.83476 34966 ft 405 kts 217°
2026-05-07 13:24 43.07149 4.79157 34970 ft 405 kts 216°
2026-05-07 13:24 43.02282 4.75217 34973 ft 407 kts 212°
2026-05-07 13:25 42.97356 4.71475 34976 ft 406 kts 212°
2026-05-07 13:25 42.92442 4.67742 34978 ft 406 kts 212°
2026-05-07 13:26 42.87511 4.64012 34984 ft 405 kts 213°
2026-05-07 13:26 42.82606 4.60306 34990 ft 404 kts 212°
2026-05-07 13:27 42.77698 4.56608 34996 ft 404 kts 212°
2026-05-07 13:27 42.72793 4.52918 34994 ft 403 kts 212°
2026-05-07 13:28 42.67896 4.49244 34991 ft 403 kts 212°
2026-05-07 13:28 42.63017 4.45588 34989 ft 402 kts 212°
2026-05-07 13:29 42.58136 4.41936 34989 ft 402 kts 212°
2026-05-07 13:29 42.53255 4.38291 34986 ft 401 kts 212°
2026-05-07 13:30 42.48387 4.34663 34984 ft 401 kts 212°
2026-05-07 13:30 42.43516 4.31039 34982 ft 400 kts 212°
2026-05-07 13:31 42.38644 4.27421 34983 ft 400 kts 212°
2026-05-07 13:31 42.33784 4.23814 34981 ft 400 kts 212°
2026-05-07 13:32 42.28915 4.20208 34979 ft 398 kts 212°
2026-05-07 13:32 42.24057 4.16618 34978 ft 398 kts 211°
2026-05-07 13:33 42.19248 4.13069 34978 ft 396 kts 211°
2026-05-07 13:33 42.14417 4.09517 34978 ft 396 kts 211°
2026-05-07 13:34 42.07193 4.04217 34978 ft 395 kts 211°
2026-05-07 13:35 42.02377 4.00685 34978 ft 394 kts 211°
2026-05-07 13:35 41.97575 3.97171 34977 ft 395 kts 211°
2026-05-07 13:36 41.92780 3.93670 34976 ft 395 kts 211°
2026-05-07 13:36 41.87865 3.90297 34977 ft 395 kts 210°
2026-05-07 13:37 41.82986 3.87044 34974 ft 395 kts 210°
2026-05-07 13:37 41.78058 3.83748 34974 ft 395 kts 210°
2026-05-07 13:38 41.73161 3.80470 34974 ft 394 kts 210°
2026-05-07 13:38 41.68255 3.77189 34973 ft 394 kts 210°
2026-05-07 13:39 41.63388 3.73938 34973 ft 394 kts 210°
2026-05-07 13:39 41.58479 3.70663 34972 ft 395 kts 209°
2026-05-07 13:40 41.53565 3.67391 34973 ft 395 kts 209°
2026-05-07 13:40 41.48656 3.64128 34973 ft 395 kts 209°
2026-05-07 13:41 41.43735 3.60860 34974 ft 394 kts 209°
2026-05-07 13:41 41.38847 3.57622 34974 ft 395 kts 210°
2026-05-07 13:42 41.33928 3.54365 34971 ft 395 kts 209°
2026-05-07 13:42 41.29011 3.51118 34971 ft 395 kts 210°
2026-05-07 13:43 41.24100 3.47900 34971 ft 395 kts 208°
2026-05-07 13:43 41.19012 3.45135 34972 ft 397 kts 203°
2026-05-07 13:44 41.13724 3.43039 34974 ft 398 kts 198°
2026-05-07 13:44 41.08312 3.41533 34976 ft 399 kts 196°
2026-05-07 13:45 41.02875 3.40076 34975 ft 400 kts 196°
2026-05-07 13:45 40.97401 3.38621 34975 ft 400 kts 196°
2026-05-07 13:46 40.91982 3.37190 34976 ft 400 kts 196°
2026-05-07 13:46 40.86522 3.35755 34972 ft 401 kts 196°
2026-05-07 13:47 40.81065 3.34321 34970 ft 400 kts 195°
2026-05-07 13:47 40.75618 3.32897 34967 ft 400 kts 195°
2026-05-07 13:48 40.70173 3.31472 34959 ft 400 kts 195°
2026-05-07 13:48 40.64723 3.30050 34956 ft 400 kts 195°
2026-05-07 13:49 40.59278 3.28631 34957 ft 400 kts 195°
2026-05-07 13:49 40.53841 3.27217 34956 ft 399 kts 195°
2026-05-07 13:50 40.48379 3.25797 34956 ft 399 kts 195°
2026-05-07 13:50 40.42930 3.24382 34956 ft 399 kts 195°
2026-05-07 13:51 40.37529 3.22983 34954 ft 398 kts 195°
2026-05-07 13:51 40.32095 3.21579 34958 ft 398 kts 195°
2026-05-07 13:52 40.26672 3.20182 34957 ft 398 kts 195°
2026-05-07 13:52 40.21228 3.18779 34954 ft 397 kts 194°
2026-05-07 13:53 40.15795 3.17382 34956 ft 399 kts 194°
2026-05-07 13:53 40.10383 3.15990 34955 ft 399 kts 195°
2026-05-07 13:54 40.04934 3.14591 34953 ft 398 kts 194°
2026-05-07 13:54 39.99511 3.13150 34951 ft 398 kts 197°
2026-05-07 13:55 39.94244 3.11174 34941 ft 395 kts 202°
2026-05-07 13:55 39.89154 3.08544 34939 ft 394 kts 206°
2026-05-07 13:56 39.84302 3.05299 34933 ft 392 kts 211°
2026-05-07 13:56 39.79538 3.01853 34923 ft 394 kts 210°
2026-05-07 13:57 39.74757 2.98397 34925 ft 393 kts 210°
2026-05-07 13:57 39.69977 2.94936 34933 ft 393 kts 210°
2026-05-07 13:58 39.65217 2.91493 34940 ft 393 kts 210°
2026-05-07 13:58 39.60432 2.88032 34939 ft 394 kts 210°
2026-05-07 13:59 39.55648 2.84576 34635 ft 392 kts 210°
2026-05-07 13:59 39.53294 2.82878 34255 ft 391 kts 210°
2026-05-07 13:59 39.50927 2.81157 33707 ft 388 kts 211°
2026-05-07 13:59 39.48660 2.79331 33074 ft 387 kts 214°
2026-05-07 14:00 39.46436 2.77317 32351 ft 387 kts 217°
2026-05-07 14:00 39.44335 2.75183 31760 ft 385 kts 219°
2026-05-07 14:00 39.42351 2.72938 31263 ft 383 kts 222°
2026-05-07 14:00 39.40453 2.70548 30743 ft 380 kts 225°
2026-05-07 14:01 39.38675 2.68067 30256 ft 376 kts 227°
2026-05-07 14:01 39.37000 2.65481 29778 ft 372 kts 229°
2026-05-07 14:01 39.35363 2.62896 29262 ft 369 kts 229°
2026-05-07 14:01 39.33755 2.60363 28772 ft 365 kts 229°
2026-05-07 14:02 39.32160 2.57847 28291 ft 361 kts 229°
2026-05-07 14:02 39.30580 2.55351 27799 ft 358 kts 229°
2026-05-07 14:02 39.29020 2.52887 27328 ft 355 kts 229°
2026-05-07 14:02 39.27486 2.50462 26859 ft 351 kts 229°
2026-05-07 14:03 39.25949 2.48036 26387 ft 348 kts 230°
2026-05-07 14:03 39.24427 2.45633 25927 ft 346 kts 230°
2026-05-07 14:03 39.22908 2.43237 25457 ft 343 kts 230°
2026-05-07 14:03 39.21414 2.40882 24989 ft 341 kts 230°
2026-05-07 14:04 39.20035 2.38428 24496 ft 341 kts 237°
2026-05-07 14:04 39.18835 2.35787 23974 ft 341 kts 239°
2026-05-07 14:04 39.17671 2.33139 23484 ft 341 kts 238°
2026-05-07 14:04 39.16502 2.30502 23002 ft 340 kts 238°
2026-05-07 14:05 39.15322 2.27863 22498 ft 340 kts 238°
2026-05-07 14:05 39.14135 2.25229 22008 ft 340 kts 238°
2026-05-07 14:05 39.12947 2.22609 21498 ft 341 kts 238°
2026-05-07 14:05 39.11755 2.19989 20983 ft 342 kts 238°
2026-05-07 14:06 39.10561 2.17373 20474 ft 343 kts 237°
2026-05-07 14:06 39.09356 2.14739 19971 ft 344 kts 237°
2026-05-07 14:06 39.08138 2.12077 19457 ft 344 kts 237°
2026-05-07 14:06 39.06929 2.09444 18954 ft 346 kts 237°
2026-05-07 14:07 39.05697 2.06761 18447 ft 347 kts 238°
2026-05-07 14:07 39.04483 2.04122 17950 ft 348 kts 237°
2026-05-07 14:07 39.03254 2.01450 17464 ft 348 kts 238°
2026-05-07 14:07 39.02030 1.98790 16995 ft 348 kts 238°
2026-05-07 14:08 39.00800 1.96121 16533 ft 348 kts 238°
2026-05-07 14:08 38.99569 1.93453 16079 ft 347 kts 237°
2026-05-07 14:08 38.98344 1.90797 15632 ft 347 kts 237°
2026-05-07 14:08 38.97105 1.88116 15177 ft 346 kts 238°
2026-05-07 14:09 38.95893 1.85499 14732 ft 346 kts 238°
2026-05-07 14:09 38.94668 1.82849 14287 ft 345 kts 238°
2026-05-07 14:09 38.93447 1.80210 13843 ft 344 kts 237°
2026-05-07 14:09 38.92220 1.77562 13390 ft 343 kts 237°
2026-05-07 14:10 38.91011 1.74954 12952 ft 342 kts 237°
2026-05-07 14:10 38.89809 1.72366 12521 ft 340 kts 237°
2026-05-07 14:10 38.88596 1.69758 12091 ft 338 kts 238°
2026-05-07 14:10 38.87400 1.67186 11666 ft 335 kts 237°
2026-05-07 14:11 38.86217 1.64645 11250 ft 333 kts 238°
2026-05-07 14:11 38.85034 1.62106 10819 ft 331 kts 238°
2026-05-07 14:11 38.83987 1.59488 10404 ft 329 kts 246°
2026-05-07 14:11 38.83214 1.56765 10130 ft 322 kts 252°
2026-05-07 14:12 38.82603 1.54043 9983 ft 310 kts 253°
2026-05-07 14:12 38.82048 1.51467 9898 ft 297 kts 254°
2026-05-07 14:12 38.81501 1.48941 9595 ft 295 kts 253°
2026-05-07 14:12 38.80949 1.46425 9215 ft 293 kts 253°
2026-05-07 14:13 38.80359 1.43941 8871 ft 291 kts 250°
2026-05-07 14:13 38.79581 1.41568 8531 ft 288 kts 243°
2026-05-07 14:13 38.78664 1.39294 8184 ft 287 kts 241°
2026-05-07 14:13 38.77727 1.37043 7836 ft 286 kts 242°
2026-05-07 14:14 38.76791 1.34801 7501 ft 285 kts 241°
2026-05-07 14:14 38.75870 1.32586 7301 ft 277 kts 241°
2026-05-07 14:14 38.74988 1.30459 7223 ft 265 kts 241°
2026-05-07 14:14 38.74147 1.28431 7129 ft 255 kts 241°
2026-05-07 14:15 38.73320 1.26443 6843 ft 254 kts 241°
2026-05-07 14:15 38.72488 1.24448 6508 ft 254 kts 241°
2026-05-07 14:15 38.71649 1.22433 6197 ft 254 kts 241°
2026-05-07 14:15 38.70826 1.20460 5907 ft 253 kts 241°
2026-05-07 14:16 38.70006 1.18493 5572 ft 252 kts 241°
2026-05-07 14:16 38.69175 1.16507 5210 ft 250 kts 241°
2026-05-07 14:16 38.68376 1.14534 4821 ft 250 kts 248°
2026-05-07 14:16 38.68078 1.12331 4139 ft 261 kts 277°
2026-05-07 14:17 38.68685 1.10181 3601 ft 257 kts 309°
2026-05-07 14:17 38.69978 1.08795 3339 ft 240 kts 340°
2026-05-07 14:17 38.71543 1.08478 3088 ft 225 kts 12°
2026-05-07 14:17 38.72990 1.09124 2951 ft 211 kts 28°
2026-05-07 14:18 38.74206 1.10028 2940 ft 200 kts 38°
2026-05-07 14:18 38.75302 1.11109 2945 ft 199 kts 41°
2026-05-07 14:18 38.76356 1.12266 2948 ft 198 kts 46°
2026-05-07 14:18 38.77258 1.13582 2947 ft 198 kts 55°
2026-05-07 14:19 38.78010 1.15039 2940 ft 190 kts 59°
2026-05-07 14:19 38.78654 1.16436 2966 ft 172 kts 62°
2026-05-07 14:19 38.79221 1.17751 3025 ft 167 kts 63°
2026-05-07 14:19 38.79766 1.19055 2861 ft 166 kts 63°
2026-05-07 14:20 38.80302 1.20358 2641 ft 164 kts 64°
2026-05-07 14:20 38.80828 1.21642 2422 ft 163 kts 63°
2026-05-07 14:20 38.81350 1.22918 2207 ft 163 kts 64°
2026-05-07 14:20 38.81878 1.24202 1993 ft 163 kts 63°
2026-05-07 14:21 38.82405 1.25485 1780 ft 160 kts 64°
2026-05-07 14:21 38.82906 1.26700 1592 ft 146 kts 63°
2026-05-07 14:21 38.83358 1.27796 1374 ft 133 kts 64°
2026-05-07 14:21 38.83776 1.28812 1201 ft 128 kts 64°
2026-05-07 14:22 38.84331 1.30160 993 ft 129 kts 63°
2026-05-07 14:22 38.84611 1.30838 890 ft 129 kts 64°
2026-05-07 14:22 38.85027 1.31854 728 ft 130 kts 65°
2026-05-07 14:22 38.85434 1.32877 551 ft 130 kts 64°
2026-05-07 14:23 38.85865 1.33891 380 ft 129 kts 63°
2026-05-07 14:23 38.86294 1.34912 216 ft 129 kts 64°
2026-05-07 14:23 38.86706 1.35915 70 ft 127 kts 64°
2026-05-07 14:23 38.87092 1.36865 20 ft 105 kts 60°
2026-05-07 14:24 38.87360 1.37498 26 ft 56 kts 61°
2026-05-07 14:24 38.87530 1.37805 26 ft 26 kts 39°
2026-05-07 14:24 38.87632 1.37900 26 ft 8 kts 32°
2026-05-07 14:24 38.87647 1.37910 26 ft 0 kts 25°
2026-05-07 14:25 38.87650 1.37911 26 ft 1 kts 22°
2026-05-07 14:25 38.87679 1.37911 26 ft 7 kts 336°
2026-05-07 14:25 38.87687 1.37835 28 ft 9 kts 241°
2026-05-07 14:25 38.87655 1.37759 29 ft 10 kts 242°
2026-05-07 14:26 38.87623 1.37678 30 ft 10 kts 243°
2026-05-07 14:26 38.87591 1.37601 32 ft 9 kts 240°
2026-05-07 14:26 38.87604 1.37543 34 ft 7 kts 329°
2026-05-07 14:26 38.87641 1.37516 36 ft 5 kts 332°
2026-05-07 14:27 38.87667 1.37499 38 ft 3 kts 332°
2026-05-07 14:27 38.87688 1.37480 39 ft 3 kts 314°
2026-05-07 14:27 38.87700 1.37448 40 ft 4 kts 278°
2026-05-07 14:27 38.87688 1.37393 41 ft 7 kts 243°
2026-05-07 14:28 38.87664 1.37333 41 ft 8 kts 240°
2026-05-07 14:28 38.87630 1.37253 39 ft 11 kts 243°
2026-05-07 14:28 38.87592 1.37159 38 ft 11 kts 240°
2026-05-07 14:28 38.87554 1.37069 38 ft 10 kts 242°
2026-05-07 14:29 38.87571 1.37014 39 ft 5 kts 333°
2026-05-07 14:29 38.87592 1.37000 40 ft 0 kts 332°
2026-05-07 14:29 38.87595 1.36998 40 ft 0 kts 333°
2026-05-07 14:30 38.87597 1.36997 40 ft 0 kts 334°